Regional Weather Roundup
Issued by NWS Bismarck, ND

Home | Current Version | Previous Version | Text Only | Print | Product List | Glossary On
Versions: 1 2 3 4 5 6 7 8 9 10 11 12 13 14 15 16 17 18 19 20 21 22 23 24 25 26 27 28 29 30 31 32 33 34 35 36 37 38 39 40 41 42 43 44 45 46 47 48 49 50
000
ASUS43 KBIS 050110
RWRBIS

NWR BROADCAST TEXT
NATIONAL WEATHER SERVICE BISMARCK ND
800 PM CDT WED MAY 04 2016

NOTE: "FAIR" INDICATES FEW OR NO CLOUDS BELOW 12,000 FEET WITH NO
SIGNIFICANT WEATHER AND/OR OBSTRUCTIONS TO VISIBILITY.


CITY           SKY/WX    TMP DP  RH WIND       PRES   REMARKS
WILLISTON      SUNNY     81  37  20 SW7       29.86F
MINOT          CLEAR     84  37  18 SW9       29.87F
MINOT AFB      CLEAR     81  40  22 SW9       29.85F
BISMARCK       CLEAR     73  47  39 S12       29.94F
DICKINSON      CLEAR     74  37  26 SW9       29.93F
GARRISON         N/A     79  42  26 SE6       29.90F
HETTINGER ARPT CLEAR     71  43  36 S8        29.99F
JAMESTOWN      CLEAR     71  38  29 W5        29.96F
BEACH          FAIR      75  36  23 S9        29.95F
CARRINGTON     FAIR      73  37  27 SW10      29.96F
HAZEN          FAIR      77  41  27 SW7       29.92F
LINTON         FAIR      73  50  43 S7        30.00S
MANDAN         FAIR      73  46  38 S9        29.96S
OAKES            N/A    N/A N/A N/A MISG        N/A
RUGBY          FAIR      75  41  29 S9        29.88F
STANLEY        FAIR      79  39  24 SW9       29.91F
TIOGA          FAIR      77  36  22 SW13      29.93S
WATFORD CITY   FAIR      81  37  21 S9        29.89F
$$

CITY           SKY/WX    TMP DP  RH WIND       PRES   REMARKS
GRAND FORKS    MOCLDY    69  33  26 E6        29.94F
GRAND FORKS AF CLEAR     68  32  26 SE6       29.95F
DEVILS LAKE    PTCLDY    66  45  46 SE7       29.93F
FARGO          CLEAR     70  24  17 N5        29.96F
CANDO          FAIR      72  37  28 S10       29.92F
CAVALIER       FAIR      70  37  30 S10       29.90F
GRAFTON        FAIR      68  34  28 S8        29.94F
GWINNER        FAIR      70  28  21 CALM      29.99S
LANGDON        FAIR      70  34  26 S13       29.91F
ROLLA          FAIR      73  37  27 S10       29.90F
WALHALLA       FAIR      73  37  27 SW8       29.89F
$$

CITY           SKY/WX    TMP DP  RH WIND       PRES   REMARKS
ABERDEEN       CLEAR     72  36  26 N3        29.99F
MOBRIDGE       CLEAR     71  48  43 SE8       29.97F
BUFFALO          N/A     74  41  30 S15       29.92F
RAPID CITY     CLEAR     68  45  43 SE9       30.01F
GLASGOW        SUNNY     81  40  23 E10       29.82F
SIDNEY         SUNNY     79  43  27 S9        29.87S
WOLF POINT     SUNNY     83  44  25 SW3       29.83F
GLENDIVE       SUNNY     79  41  25 S8        29.91F
MILES CITY     SUNNY     82  33  17 VRB6      29.88F
BAKER          SUNNY     76  43  30 S7        29.95F
$$

CITY           SKY/WX    TMP DP  RH WIND       PRES   REMARKS
BILLINGS       MOSUNNY   81  31  16 SE7       29.92F
GREAT FALLS    CLOUDY    77  35  21 NW9       29.87F
REGINA         MOSUNNY   84  36  17 W14       29.76F
ESTEVAN        MOSUNNY   81  37  21 SW12      29.84S
$$




USA.gov is the U.S. government's official web portal to all federal, state and local government web resources and services.